Data supplied by UK-AIR on 9/6/2008
All Data GMT hour ending 
Status: R =Ratified P=Provisional,P*=As supplied
,,Billingham,,,,,,,,,,,,,,,,,,,,,,,
Date,time,"Nitric oxide",status,unit,"Nitrogen dioxide",status,unit,"Nitrogen oxides as nitrogen dioxide",status,unit
 
01-01-2006,01:00,4,R,ugm-3,42,R,ugm-3,48,R,ugm-3
01-01-2006,02:00,1,R,ugm-3,23,R,ugm-3,25,R,ugm-3
01-01-2006,03:00,1,R,ugm-3,25,R,ugm-3,27,R,ugm-3
01-01-2006,04:00,1,R,ugm-3,25,R,ugm-3,27,R,ugm-3
01-01-2006,05:00,0,R,ugm-3,10,R,ugm-3,10,R,ugm-3
01-01-2006,06:00,0,R,ugm-3,8,R,ugm-3,8,R,ugm-3
01-01-2006,07:00,0,R,ugm-3,10,R,ugm-3,10,R,ugm-3
01-01-2006,08:00,0,R,ugm-3,13,R,ugm-3,13,R,ugm-3
01-01-2006,09:00,1,R,ugm-3,10,R,ugm-3,11,R,ugm-3
01-01-2006,10:00,1,R,ugm-3,11,R,ugm-3,13,R,ugm-3
01-01-2006,11:00,4,R,ugm-3,11,R,ugm-3,17,R,ugm-3
01-01-2006,12:00,1,R,ugm-3,8,R,ugm-3,10,R,ugm-3
01-01-2006,13:00,1,R,ugm-3,11,R,ugm-3,13,R,ugm-3
01-01-2006,14:00,3,R,ugm-3,11,R,ugm-3,15,R,ugm-3
01-01-2006,15:00,1,R,ugm-3,11,R,ugm-3,13,R,ugm-3
01-01-2006,16:00,0,R,ugm-3,15,R,ugm-3,15,R,ugm-3
01-01-2006,17:00,0,R,ugm-3,17,R,ugm-3,17,R,ugm-3
01-01-2006,18:00,1,R,ugm-3,21,R,ugm-3,23,R,ugm-3
01-01-2006,19:00,1,R,ugm-3,15,R,ugm-3,17,R,ugm-3
01-01-2006,20:00,0,R,ugm-3,19,R,ugm-3,19,R,ugm-3
01-01-2006,21:00,1,R,ugm-3,19,R,ugm-3,21,R,ugm-3
01-01-2006,22:00,1,R,ugm-3,23,R,ugm-3,25,R,ugm-3
01-01-2006,23:00,1,R,ugm-3,25,R,ugm-3,27,R,ugm-3
01-01-2006,24:00,4,R,ugm-3,25,R,ugm-3,31,R,ugm-3
02-01-2006,01:00,5,R,ugm-3,31,R,ugm-3,38,R,ugm-3
02-01-2006,02:00,0,R,ugm-3,19,R,ugm-3,19,R,ugm-3
02-01-2006,03:00,10,R,ugm-3,31,R,ugm-3,46,R,ugm-3
02-01-2006,04:00,10,R,ugm-3,32,R,ugm-3,48,R,ugm-3
02-01-2006,05:00,5,R,ugm-3,32,R,ugm-3,40,R,ugm-3
02-01-2006,06:00,5,R,ugm-3,29,R,ugm-3,36,R,ugm-3
02-01-2006,07:00,9,R,ugm-3,32,R,ugm-3,46,R,ugm-3
02-01-2006,08:00,29,R,ugm-3,36,R,ugm-3,80,R,ugm-3
02-01-2006,09:00,40,R,ugm-3,40,R,ugm-3,101,R,ugm-3
02-01-2006,10:00,69,R,ugm-3,44,R,ugm-3,149,R,ugm-3
02-01-2006,11:00,36,R,ugm-3,40,R,ugm-3,96,R,ugm-3
02-01-2006,12:00,15,R,ugm-3,32,R,ugm-3,55,R,ugm-3
02-01-2006,13:00,10,R,ugm-3,31,R,ugm-3,46,R,ugm-3
02-01-2006,14:00,14,R,ugm-3,36,R,ugm-3,57,R,ugm-3
02-01-2006,15:00,13,R,ugm-3,38,R,ugm-3,57,R,ugm-3
02-01-2006,16:00,16,R,ugm-3,40,R,ugm-3,65,R,ugm-3
02-01-2006,17:00,29,R,ugm-3,48,R,ugm-3,92,R,ugm-3
02-01-2006,18:00,16,R,ugm-3,46,R,ugm-3,71,R,ugm-3
02-01-2006,19:00,5,R,ugm-3,38,R,ugm-3,46,R,ugm-3
02-01-2006,20:00,6,R,ugm-3,40,R,ugm-3,50,R,ugm-3
02-01-2006,21:00,4,R,ugm-3,32,R,ugm-3,38,R,ugm-3
02-01-2006,22:00,4,R,ugm-3,34,R,ugm-3,40,R,ugm-3
02-01-2006,23:00,1,R,ugm-3,27,R,ugm-3,29,R,ugm-3
02-01-2006,24:00,1,R,ugm-3,29,R,ugm-3,31,R,ugm-3
03-01-2006,01:00,1,R,ugm-3,34,R,ugm-3,36,R,ugm-3
03-01-2006,02:00,0,R,ugm-3,31,R,ugm-3,31,R,ugm-3
03-01-2006,03:00,1,R,ugm-3,27,R,ugm-3,29,R,ugm-3
03-01-2006,04:00,0,R,ugm-3,19,R,ugm-3,19,R,ugm-3
03-01-2006,05:00,0,R,ugm-3,15,R,ugm-3,15,R,ugm-3
03-01-2006,06:00,0,R,ugm-3,19,R,ugm-3,19,R,ugm-3
03-01-2006,07:00,3,R,ugm-3,23,R,ugm-3,27,R,ugm-3
03-01-2006,08:00,41,R,ugm-3,50,R,ugm-3,113,R,ugm-3
03-01-2006,09:00,60,R,ugm-3,78,R,ugm-3,170,R,ugm-3
03-01-2006,10:00,30,R,ugm-3,46,R,ugm-3,92,R,ugm-3
03-01-2006,11:00,49,R,ugm-3,46,R,ugm-3,120,R,ugm-3
03-01-2006,12:00,,,,,,,,,
03-01-2006,13:00,81,R,ugm-3,61,R,ugm-3,185,R,ugm-3
03-01-2006,14:00,30,R,ugm-3,53,R,ugm-3,99,R,ugm-3
03-01-2006,15:00,69,R,ugm-3,71,R,ugm-3,176,R,ugm-3
03-01-2006,16:00,73,R,ugm-3,82,R,ugm-3,193,R,ugm-3
03-01-2006,17:00,83,R,ugm-3,88,R,ugm-3,214,R,ugm-3
03-01-2006,18:00,43,R,ugm-3,69,R,ugm-3,134,R,ugm-3
03-01-2006,19:00,43,R,ugm-3,69,R,ugm-3,134,R,ugm-3
03-01-2006,20:00,43,R,ugm-3,74,R,ugm-3,139,R,ugm-3
03-01-2006,21:00,58,R,ugm-3,67,R,ugm-3,155,R,ugm-3
03-01-2006,22:00,70,R,ugm-3,69,R,ugm-3,176,R,ugm-3
03-01-2006,23:00,85,R,ugm-3,65,R,ugm-3,195,R,ugm-3
03-01-2006,24:00,75,R,ugm-3,61,R,ugm-3,176,R,ugm-3
04-01-2006,01:00,48,R,ugm-3,50,R,ugm-3,122,R,ugm-3
04-01-2006,02:00,14,R,ugm-3,42,R,ugm-3,63,R,ugm-3
04-01-2006,03:00,34,R,ugm-3,42,R,ugm-3,94,R,ugm-3
04-01-2006,04:00,23,R,ugm-3,40,R,ugm-3,74,R,ugm-3
04-01-2006,05:00,29,R,ugm-3,42,R,ugm-3,86,R,ugm-3
04-01-2006,06:00,28,R,ugm-3,46,R,ugm-3,88,R,ugm-3
04-01-2006,07:00,105,R,ugm-3,63,R,ugm-3,223,R,ugm-3
04-01-2006,08:00,400,R,ugm-3,235,R,ugm-3,846,R,ugm-3
04-01-2006,09:00,368,R,ugm-3,147,R,ugm-3,709,R,ugm-3
04-01-2006,10:00,231,R,ugm-3,90,R,ugm-3,443,R,ugm-3
04-01-2006,11:00,228,R,ugm-3,96,R,ugm-3,443,R,ugm-3
04-01-2006,12:00,189,R,ugm-3,92,R,ugm-3,380,R,ugm-3
04-01-2006,13:00,118,R,ugm-3,69,R,ugm-3,248,R,ugm-3
04-01-2006,14:00,121,R,ugm-3,74,R,ugm-3,260,R,ugm-3
04-01-2006,15:00,118,R,ugm-3,71,R,ugm-3,250,R,ugm-3
04-01-2006,16:00,110,R,ugm-3,84,R,ugm-3,252,R,ugm-3
04-01-2006,17:00,199,R,ugm-3,117,R,ugm-3,420,R,ugm-3
04-01-2006,18:00,184,R,ugm-3,82,R,ugm-3,363,R,ugm-3
04-01-2006,19:00,164,R,ugm-3,76,R,ugm-3,327,R,ugm-3
04-01-2006,20:00,219,R,ugm-3,84,R,ugm-3,418,R,ugm-3
04-01-2006,21:00,270,R,ugm-3,86,R,ugm-3,499,R,ugm-3
04-01-2006,22:00,198,R,ugm-3,78,R,ugm-3,380,R,ugm-3
04-01-2006,23:00,36,R,ugm-3,44,R,ugm-3,99,R,ugm-3
04-01-2006,24:00,0,R,ugm-3,15,R,ugm-3,15,R,ugm-3
05-01-2006,01:00,0,R,ugm-3,19,R,ugm-3,19,R,ugm-3
05-01-2006,02:00,0,R,ugm-3,23,R,ugm-3,23,R,ugm-3
05-01-2006,03:00,0,R,ugm-3,23,R,ugm-3,23,R,ugm-3
05-01-2006,04:00,1,R,ugm-3,29,R,ugm-3,31,R,ugm-3
05-01-2006,05:00,0,R,ugm-3,23,R,ugm-3,23,R,ugm-3
05-01-2006,06:00,6,R,ugm-3,10,R,ugm-3,19,R,ugm-3
05-01-2006,07:00,6,R,ugm-3,13,R,ugm-3,23,R,ugm-3
05-01-2006,08:00,130,R,ugm-3,202,R,ugm-3,401,R,ugm-3
05-01-2006,09:00,85,R,ugm-3,96,R,ugm-3,225,R,ugm-3
05-01-2006,10:00,15,R,ugm-3,32,R,ugm-3,55,R,ugm-3
05-01-2006,11:00,21,R,ugm-3,40,R,ugm-3,73,R,ugm-3
05-01-2006,12:00,16,R,ugm-3,31,R,ugm-3,55,R,ugm-3
05-01-2006,13:00,15,R,ugm-3,40,R,ugm-3,63,R,ugm-3
05-01-2006,14:00,40,R,ugm-3,67,R,ugm-3,128,R,ugm-3
05-01-2006,15:00,18,R,ugm-3,34,R,ugm-3,61,R,ugm-3
05-01-2006,16:00,36,R,ugm-3,59,R,ugm-3,115,R,ugm-3
05-01-2006,17:00,4,R,ugm-3,31,R,ugm-3,36,R,ugm-3
05-01-2006,18:00,5,R,ugm-3,31,R,ugm-3,38,R,ugm-3
05-01-2006,19:00,0,R,ugm-3,27,R,ugm-3,27,R,ugm-3
05-01-2006,20:00,3,R,ugm-3,29,R,ugm-3,32,R,ugm-3
05-01-2006,21:00,0,R,ugm-3,21,R,ugm-3,21,R,ugm-3
05-01-2006,22:00,3,R,ugm-3,31,R,ugm-3,34,R,ugm-3
05-01-2006,23:00,0,R,ugm-3,21,R,ugm-3,21,R,ugm-3
05-01-2006,24:00,1,R,ugm-3,27,R,ugm-3,29,R,ugm-3
06-01-2006,01:00,1,R,ugm-3,27,R,ugm-3,29,R,ugm-3
06-01-2006,02:00,3,R,ugm-3,27,R,ugm-3,31,R,ugm-3
06-01-2006,03:00,1,R,ugm-3,25,R,ugm-3,27,R,ugm-3
06-01-2006,04:00,1,R,ugm-3,19,R,ugm-3,21,R,ugm-3
06-01-2006,05:00,6,R,ugm-3,32,R,ugm-3,42,R,ugm-3
06-01-2006,06:00,11,R,ugm-3,31,R,ugm-3,48,R,ugm-3
06-01-2006,07:00,73,R,ugm-3,63,R,ugm-3,174,R,ugm-3
06-01-2006,08:00,194,R,ugm-3,199,R,ugm-3,495,R,ugm-3
06-01-2006,09:00,145,R,ugm-3,80,R,ugm-3,302,R,ugm-3
06-01-2006,10:00,153,R,ugm-3,74,R,ugm-3,308,R,ugm-3
06-01-2006,11:00,121,R,ugm-3,74,R,ugm-3,260,R,ugm-3
06-01-2006,12:00,86,R,ugm-3,55,R,ugm-3,187,R,ugm-3
06-01-2006,13:00,43,R,ugm-3,50,R,ugm-3,115,R,ugm-3
06-01-2006,14:00,63,R,ugm-3,55,R,ugm-3,151,R,ugm-3
06-01-2006,15:00,96,R,ugm-3,61,R,ugm-3,208,R,ugm-3
06-01-2006,16:00,129,R,ugm-3,76,R,ugm-3,273,R,ugm-3
06-01-2006,17:00,115,R,ugm-3,69,R,ugm-3,244,R,ugm-3
06-01-2006,18:00,54,R,ugm-3,50,R,ugm-3,132,R,ugm-3
06-01-2006,19:00,38,R,ugm-3,48,R,ugm-3,105,R,ugm-3
06-01-2006,20:00,33,R,ugm-3,46,R,ugm-3,96,R,ugm-3
06-01-2006,21:00,33,R,ugm-3,44,R,ugm-3,94,R,ugm-3
06-01-2006,22:00,30,R,ugm-3,42,R,ugm-3,88,R,ugm-3
06-01-2006,23:00,45,R,ugm-3,42,R,ugm-3,111,R,ugm-3
06-01-2006,24:00,14,R,ugm-3,36,R,ugm-3,57,R,ugm-3
07-01-2006,01:00,3,R,ugm-3,21,R,ugm-3,25,R,ugm-3
07-01-2006,02:00,1,R,ugm-3,17,R,ugm-3,19,R,ugm-3
07-01-2006,03:00,0,R,ugm-3,19,R,ugm-3,19,R,ugm-3
07-01-2006,04:00,0,R,ugm-3,17,R,ugm-3,17,R,ugm-3
07-01-2006,05:00,4,R,ugm-3,25,R,ugm-3,31,R,ugm-3
07-01-2006,06:00,3,R,ugm-3,27,R,ugm-3,31,R,ugm-3
07-01-2006,07:00,61,R,ugm-3,40,R,ugm-3,134,R,ugm-3
07-01-2006,08:00,86,R,ugm-3,50,R,ugm-3,181,R,ugm-3
07-01-2006,09:00,69,R,ugm-3,50,R,ugm-3,155,R,ugm-3
07-01-2006,10:00,88,R,ugm-3,55,R,ugm-3,189,R,ugm-3
07-01-2006,11:00,108,R,ugm-3,65,R,ugm-3,229,R,ugm-3
07-01-2006,12:00,65,R,ugm-3,50,R,ugm-3,149,R,ugm-3
07-01-2006,13:00,10,R,ugm-3,31,R,ugm-3,46,R,ugm-3
07-01-2006,14:00,5,R,ugm-3,27,R,ugm-3,34,R,ugm-3
07-01-2006,15:00,3,R,ugm-3,21,R,ugm-3,25,R,ugm-3
07-01-2006,16:00,5,R,ugm-3,31,R,ugm-3,38,R,ugm-3
07-01-2006,17:00,6,R,ugm-3,32,R,ugm-3,42,R,ugm-3
07-01-2006,18:00,1,R,ugm-3,25,R,ugm-3,27,R,ugm-3
07-01-2006,19:00,1,R,ugm-3,21,R,ugm-3,23,R,ugm-3
07-01-2006,20:00,0,R,ugm-3,25,R,ugm-3,25,R,ugm-3
07-01-2006,21:00,0,R,ugm-3,25,R,ugm-3,25,R,ugm-3
07-01-2006,22:00,0,R,ugm-3,31,R,ugm-3,31,R,ugm-3
07-01-2006,23:00,1,R,ugm-3,29,R,ugm-3,31,R,ugm-3
07-01-2006,24:00,0,R,ugm-3,31,R,ugm-3,31,R,ugm-3
08-01-2006,01:00,3,R,ugm-3,32,R,ugm-3,36,R,ugm-3
08-01-2006,02:00,3,R,ugm-3,32,R,ugm-3,36,R,ugm-3
08-01-2006,03:00,10,R,ugm-3,36,R,ugm-3,52,R,ugm-3
08-01-2006,04:00,5,R,ugm-3,32,R,ugm-3,40,R,ugm-3
08-01-2006,05:00,5,R,ugm-3,36,R,ugm-3,44,R,ugm-3
08-01-2006,06:00,9,R,ugm-3,32,R,ugm-3,46,R,ugm-3
08-01-2006,07:00,10,R,ugm-3,34,R,ugm-3,50,R,ugm-3
08-01-2006,08:00,19,R,ugm-3,38,R,ugm-3,67,R,ugm-3
08-01-2006,09:00,34,R,ugm-3,38,R,ugm-3,90,R,ugm-3
08-01-2006,10:00,10,R,ugm-3,38,R,ugm-3,53,R,ugm-3
08-01-2006,11:00,24,R,ugm-3,46,R,ugm-3,82,R,ugm-3
08-01-2006,12:00,28,R,ugm-3,46,R,ugm-3,88,R,ugm-3
08-01-2006,13:00,14,R,ugm-3,44,R,ugm-3,65,R,ugm-3
08-01-2006,14:00,10,R,ugm-3,38,R,ugm-3,53,R,ugm-3
08-01-2006,15:00,8,R,ugm-3,36,R,ugm-3,48,R,ugm-3
08-01-2006,16:00,11,R,ugm-3,42,R,ugm-3,59,R,ugm-3
08-01-2006,17:00,24,R,ugm-3,50,R,ugm-3,86,R,ugm-3
08-01-2006,18:00,24,R,ugm-3,52,R,ugm-3,88,R,ugm-3
08-01-2006,19:00,31,R,ugm-3,52,R,ugm-3,99,R,ugm-3
08-01-2006,20:00,41,R,ugm-3,52,R,ugm-3,115,R,ugm-3
08-01-2006,21:00,33,R,ugm-3,48,R,ugm-3,97,R,ugm-3
08-01-2006,22:00,39,R,ugm-3,50,R,ugm-3,109,R,ugm-3
08-01-2006,23:00,16,R,ugm-3,42,R,ugm-3,67,R,ugm-3
08-01-2006,24:00,20,R,ugm-3,36,R,ugm-3,67,R,ugm-3
09-01-2006,01:00,20,R,ugm-3,36,R,ugm-3,67,R,ugm-3
09-01-2006,02:00,38,R,ugm-3,42,R,ugm-3,99,R,ugm-3
09-01-2006,03:00,43,R,ugm-3,42,R,ugm-3,107,R,ugm-3
09-01-2006,04:00,31,R,ugm-3,40,R,ugm-3,88,R,ugm-3
09-01-2006,05:00,29,R,ugm-3,40,R,ugm-3,84,R,ugm-3
09-01-2006,06:00,51,R,ugm-3,40,R,ugm-3,118,R,ugm-3
09-01-2006,07:00,33,R,ugm-3,42,R,ugm-3,92,R,ugm-3
09-01-2006,08:00,154,R,ugm-3,218,R,ugm-3,453,R,ugm-3
09-01-2006,09:00,83,R,ugm-3,78,R,ugm-3,204,R,ugm-3
09-01-2006,10:00,34,R,ugm-3,38,R,ugm-3,90,R,ugm-3
09-01-2006,11:00,33,R,ugm-3,44,R,ugm-3,94,R,ugm-3
09-01-2006,12:00,39,R,ugm-3,40,R,ugm-3,99,R,ugm-3
09-01-2006,13:00,36,R,ugm-3,38,R,ugm-3,94,R,ugm-3
09-01-2006,14:00,29,R,ugm-3,38,R,ugm-3,82,R,ugm-3
09-01-2006,15:00,29,R,ugm-3,50,R,ugm-3,94,R,ugm-3
09-01-2006,16:00,45,R,ugm-3,55,R,ugm-3,124,R,ugm-3
09-01-2006,17:00,25,R,ugm-3,48,R,ugm-3,86,R,ugm-3
09-01-2006,18:00,20,R,ugm-3,46,R,ugm-3,76,R,ugm-3
09-01-2006,19:00,9,R,ugm-3,44,R,ugm-3,57,R,ugm-3
09-01-2006,20:00,6,R,ugm-3,38,R,ugm-3,48,R,ugm-3
09-01-2006,21:00,3,R,ugm-3,29,R,ugm-3,32,R,ugm-3
09-01-2006,22:00,1,R,ugm-3,27,R,ugm-3,29,R,ugm-3
09-01-2006,23:00,1,R,ugm-3,29,R,ugm-3,31,R,ugm-3
09-01-2006,24:00,1,R,ugm-3,27,R,ugm-3,29,R,ugm-3
10-01-2006,01:00,1,R,ugm-3,25,R,ugm-3,27,R,ugm-3
10-01-2006,02:00,0,R,ugm-3,19,R,ugm-3,19,R,ugm-3
10-01-2006,03:00,0,R,ugm-3,19,R,ugm-3,19,R,ugm-3
10-01-2006,04:00,0,R,ugm-3,17,R,ugm-3,17,R,ugm-3
10-01-2006,05:00,0,R,ugm-3,13,R,ugm-3,13,R,ugm-3
10-01-2006,06:00,1,R,ugm-3,15,R,ugm-3,17,R,ugm-3
10-01-2006,07:00,3,R,ugm-3,25,R,ugm-3,29,R,ugm-3
10-01-2006,08:00,25,R,ugm-3,65,R,ugm-3,103,R,ugm-3
10-01-2006,09:00,13,R,ugm-3,38,R,ugm-3,57,R,ugm-3
10-01-2006,10:00,8,R,ugm-3,32,R,ugm-3,44,R,ugm-3
10-01-2006,11:00,9,R,ugm-3,31,R,ugm-3,44,R,ugm-3
10-01-2006,12:00,5,R,ugm-3,27,R,ugm-3,34,R,ugm-3
10-01-2006,13:00,15,R,ugm-3,29,R,ugm-3,52,R,ugm-3
10-01-2006,14:00,18,R,ugm-3,29,R,ugm-3,55,R,ugm-3
10-01-2006,15:00,18,R,ugm-3,27,R,ugm-3,53,R,ugm-3
10-01-2006,16:00,10,R,ugm-3,27,R,ugm-3,42,R,ugm-3
10-01-2006,17:00,4,R,ugm-3,31,R,ugm-3,36,R,ugm-3
10-01-2006,18:00,3,R,ugm-3,25,R,ugm-3,29,R,ugm-3
10-01-2006,19:00,1,R,ugm-3,21,R,ugm-3,23,R,ugm-3
10-01-2006,20:00,1,R,ugm-3,17,R,ugm-3,19,R,ugm-3
10-01-2006,21:00,1,R,ugm-3,17,R,ugm-3,19,R,ugm-3
10-01-2006,22:00,1,R,ugm-3,13,R,ugm-3,15,R,ugm-3
10-01-2006,23:00,0,R,ugm-3,10,R,ugm-3,10,R,ugm-3
10-01-2006,24:00,0,R,ugm-3,10,R,ugm-3,10,R,ugm-3
11-01-2006,01:00,0,R,ugm-3,6,R,ugm-3,6,R,ugm-3
11-01-2006,02:00,0,R,ugm-3,6,R,ugm-3,6,R,ugm-3
11-01-2006,03:00,0,R,ugm-3,6,R,ugm-3,6,R,ugm-3
11-01-2006,04:00,1,R,ugm-3,11,R,ugm-3,13,R,ugm-3
11-01-2006,05:00,1,R,ugm-3,6,R,ugm-3,8,R,ugm-3
11-01-2006,06:00,1,R,ugm-3,6,R,ugm-3,8,R,ugm-3
11-01-2006,07:00,6,R,ugm-3,11,R,ugm-3,21,R,ugm-3
11-01-2006,08:00,76,R,ugm-3,67,R,ugm-3,183,R,ugm-3
11-01-2006,09:00,26,R,ugm-3,40,R,ugm-3,80,R,ugm-3
11-01-2006,10:00,16,R,ugm-3,29,R,ugm-3,53,R,ugm-3
11-01-2006,11:00,26,R,ugm-3,23,R,ugm-3,63,R,ugm-3
11-01-2006,12:00,31,R,ugm-3,36,R,ugm-3,84,R,ugm-3
11-01-2006,13:00,16,R,ugm-3,29,R,ugm-3,53,R,ugm-3
11-01-2006,14:00,16,R,ugm-3,31,R,ugm-3,55,R,ugm-3
11-01-2006,15:00,18,R,ugm-3,27,R,ugm-3,53,R,ugm-3
11-01-2006,16:00,16,R,ugm-3,36,R,ugm-3,61,R,ugm-3
11-01-2006,17:00,20,R,ugm-3,48,R,ugm-3,78,R,ugm-3
11-01-2006,18:00,15,R,ugm-3,46,R,ugm-3,69,R,ugm-3
11-01-2006,19:00,5,R,ugm-3,42,R,ugm-3,50,R,ugm-3
11-01-2006,20:00,4,R,ugm-3,36,R,ugm-3,42,R,ugm-3
11-01-2006,21:00,3,R,ugm-3,36,R,ugm-3,40,R,ugm-3
11-01-2006,22:00,3,R,ugm-3,27,R,ugm-3,31,R,ugm-3
11-01-2006,23:00,1,R,ugm-3,23,R,ugm-3,25,R,ugm-3
11-01-2006,24:00,1,R,ugm-3,21,R,ugm-3,23,R,ugm-3
12-01-2006,01:00,0,R,ugm-3,19,R,ugm-3,19,R,ugm-3
12-01-2006,02:00,1,R,ugm-3,29,R,ugm-3,31,R,ugm-3
12-01-2006,03:00,0,R,ugm-3,23,R,ugm-3,23,R,ugm-3
12-01-2006,04:00,1,R,ugm-3,23,R,ugm-3,25,R,ugm-3
12-01-2006,05:00,1,R,ugm-3,23,R,ugm-3,25,R,ugm-3
12-01-2006,06:00,1,R,ugm-3,23,R,ugm-3,25,R,ugm-3
12-01-2006,07:00,5,R,ugm-3,27,R,ugm-3,34,R,ugm-3
12-01-2006,08:00,14,R,ugm-3,38,R,ugm-3,59,R,ugm-3
12-01-2006,09:00,23,R,ugm-3,38,R,ugm-3,73,R,ugm-3
12-01-2006,10:00,14,R,ugm-3,42,R,ugm-3,63,R,ugm-3
12-01-2006,11:00,18,R,ugm-3,46,R,ugm-3,73,R,ugm-3
12-01-2006,12:00,81,R,ugm-3,74,R,ugm-3,199,R,ugm-3
12-01-2006,13:00,18,R,ugm-3,46,R,ugm-3,73,R,ugm-3
12-01-2006,14:00,15,R,ugm-3,36,R,ugm-3,59,R,ugm-3
12-01-2006,15:00,19,R,ugm-3,44,R,ugm-3,73,R,ugm-3
12-01-2006,16:00,16,R,ugm-3,50,R,ugm-3,74,R,ugm-3
12-01-2006,17:00,5,R,ugm-3,44,R,ugm-3,52,R,ugm-3
12-01-2006,18:00,4,R,ugm-3,42,R,ugm-3,48,R,ugm-3
12-01-2006,19:00,4,R,ugm-3,38,R,ugm-3,44,R,ugm-3
12-01-2006,20:00,4,R,ugm-3,44,R,ugm-3,50,R,ugm-3
12-01-2006,21:00,4,R,ugm-3,40,R,ugm-3,46,R,ugm-3
12-01-2006,22:00,4,R,ugm-3,34,R,ugm-3,40,R,ugm-3
12-01-2006,23:00,4,R,ugm-3,38,R,ugm-3,44,R,ugm-3
12-01-2006,24:00,1,R,ugm-3,29,R,ugm-3,31,R,ugm-3
13-01-2006,01:00,3,R,ugm-3,31,R,ugm-3,34,R,ugm-3
13-01-2006,02:00,3,R,ugm-3,31,R,ugm-3,34,R,ugm-3
13-01-2006,03:00,4,R,ugm-3,31,R,ugm-3,36,R,ugm-3
13-01-2006,04:00,3,R,ugm-3,34,R,ugm-3,38,R,ugm-3
13-01-2006,05:00,4,R,ugm-3,31,R,ugm-3,36,R,ugm-3
13-01-2006,06:00,4,R,ugm-3,34,R,ugm-3,40,R,ugm-3
13-01-2006,07:00,8,R,ugm-3,42,R,ugm-3,53,R,ugm-3
13-01-2006,08:00,21,R,ugm-3,50,R,ugm-3,82,R,ugm-3
13-01-2006,09:00,25,R,ugm-3,57,R,ugm-3,96,R,ugm-3
13-01-2006,10:00,10,R,ugm-3,40,R,ugm-3,55,R,ugm-3
13-01-2006,11:00,19,R,ugm-3,44,R,ugm-3,73,R,ugm-3
13-01-2006,12:00,15,R,ugm-3,40,R,ugm-3,63,R,ugm-3
13-01-2006,13:00,16,R,ugm-3,42,R,ugm-3,67,R,ugm-3
13-01-2006,14:00,19,R,ugm-3,48,R,ugm-3,76,R,ugm-3
13-01-2006,15:00,25,R,ugm-3,57,R,ugm-3,96,R,ugm-3
13-01-2006,16:00,11,R,ugm-3,55,R,ugm-3,73,R,ugm-3
13-01-2006,17:00,5,R,ugm-3,44,R,ugm-3,52,R,ugm-3
13-01-2006,18:00,4,R,ugm-3,40,R,ugm-3,46,R,ugm-3
13-01-2006,19:00,3,R,ugm-3,38,R,ugm-3,42,R,ugm-3
13-01-2006,20:00,4,R,ugm-3,38,R,ugm-3,44,R,ugm-3
13-01-2006,21:00,4,R,ugm-3,38,R,ugm-3,44,R,ugm-3
13-01-2006,22:00,3,R,ugm-3,38,R,ugm-3,42,R,ugm-3
13-01-2006,23:00,3,R,ugm-3,31,R,ugm-3,34,R,ugm-3
13-01-2006,24:00,3,R,ugm-3,31,R,ugm-3,34,R,ugm-3
14-01-2006,01:00,3,R,ugm-3,29,R,ugm-3,32,R,ugm-3
14-01-2006,02:00,1,R,ugm-3,27,R,ugm-3,29,R,ugm-3
14-01-2006,03:00,1,R,ugm-3,27,R,ugm-3,29,R,ugm-3
14-01-2006,04:00,1,R,ugm-3,31,R,ugm-3,32,R,ugm-3
14-01-2006,05:00,1,R,ugm-3,29,R,ugm-3,31,R,ugm-3
14-01-2006,06:00,3,R,ugm-3,29,R,ugm-3,32,R,ugm-3
14-01-2006,07:00,3,R,ugm-3,21,R,ugm-3,25,R,ugm-3
14-01-2006,08:00,4,R,ugm-3,29,R,ugm-3,34,R,ugm-3
14-01-2006,09:00,4,R,ugm-3,27,R,ugm-3,32,R,ugm-3
14-01-2006,10:00,8,R,ugm-3,32,R,ugm-3,44,R,ugm-3
14-01-2006,11:00,5,R,ugm-3,29,R,ugm-3,36,R,ugm-3
14-01-2006,12:00,6,R,ugm-3,27,R,ugm-3,36,R,ugm-3
14-01-2006,13:00,5,R,ugm-3,21,R,ugm-3,29,R,ugm-3
14-01-2006,14:00,4,R,ugm-3,23,R,ugm-3,29,R,ugm-3
14-01-2006,15:00,4,R,ugm-3,21,R,ugm-3,27,R,ugm-3
14-01-2006,16:00,4,R,ugm-3,27,R,ugm-3,32,R,ugm-3
14-01-2006,17:00,4,R,ugm-3,46,R,ugm-3,52,R,ugm-3
14-01-2006,18:00,13,R,ugm-3,61,R,ugm-3,80,R,ugm-3
14-01-2006,19:00,18,R,ugm-3,61,R,ugm-3,88,R,ugm-3
14-01-2006,20:00,56,R,ugm-3,63,R,ugm-3,149,R,ugm-3
14-01-2006,21:00,21,R,ugm-3,52,R,ugm-3,84,R,ugm-3
14-01-2006,22:00,9,R,ugm-3,46,R,ugm-3,59,R,ugm-3
14-01-2006,23:00,4,R,ugm-3,44,R,ugm-3,50,R,ugm-3
14-01-2006,24:00,1,R,ugm-3,34,R,ugm-3,36,R,ugm-3
15-01-2006,01:00,3,R,ugm-3,29,R,ugm-3,32,R,ugm-3
15-01-2006,02:00,4,R,ugm-3,38,R,ugm-3,44,R,ugm-3
15-01-2006,03:00,4,R,ugm-3,36,R,ugm-3,42,R,ugm-3
15-01-2006,04:00,3,R,ugm-3,29,R,ugm-3,32,R,ugm-3
15-01-2006,05:00,3,R,ugm-3,36,R,ugm-3,40,R,ugm-3
15-01-2006,06:00,3,R,ugm-3,29,R,ugm-3,32,R,ugm-3
15-01-2006,07:00,4,R,ugm-3,31,R,ugm-3,36,R,ugm-3
15-01-2006,08:00,4,R,ugm-3,40,R,ugm-3,46,R,ugm-3
15-01-2006,09:00,11,R,ugm-3,48,R,ugm-3,65,R,ugm-3
15-01-2006,10:00,11,R,ugm-3,42,R,ugm-3,59,R,ugm-3
15-01-2006,11:00,6,R,ugm-3,25,R,ugm-3,34,R,ugm-3
15-01-2006,12:00,9,R,ugm-3,32,R,ugm-3,46,R,ugm-3
15-01-2006,13:00,9,R,ugm-3,29,R,ugm-3,42,R,ugm-3
15-01-2006,14:00,5,R,ugm-3,23,R,ugm-3,31,R,ugm-3
15-01-2006,15:00,4,R,ugm-3,23,R,ugm-3,29,R,ugm-3
15-01-2006,16:00,3,R,ugm-3,23,R,ugm-3,27,R,ugm-3
15-01-2006,17:00,1,R,ugm-3,23,R,ugm-3,25,R,ugm-3
15-01-2006,18:00,0,R,ugm-3,23,R,ugm-3,23,R,ugm-3
15-01-2006,19:00,3,R,ugm-3,25,R,ugm-3,29,R,ugm-3
15-01-2006,20:00,1,R,ugm-3,31,R,ugm-3,32,R,ugm-3
15-01-2006,21:00,1,R,ugm-3,32,R,ugm-3,34,R,ugm-3
15-01-2006,22:00,3,R,ugm-3,34,R,ugm-3,38,R,ugm-3
15-01-2006,23:00,4,R,ugm-3,34,R,ugm-3,40,R,ugm-3
15-01-2006,24:00,3,R,ugm-3,31,R,ugm-3,34,R,ugm-3
16-01-2006,01:00,1,R,ugm-3,32,R,ugm-3,34,R,ugm-3
16-01-2006,02:00,3,R,ugm-3,31,R,ugm-3,34,R,ugm-3
16-01-2006,03:00,0,R,ugm-3,25,R,ugm-3,25,R,ugm-3
16-01-2006,04:00,0,R,ugm-3,27,R,ugm-3,27,R,ugm-3
16-01-2006,05:00,4,R,ugm-3,34,R,ugm-3,40,R,ugm-3
16-01-2006,06:00,4,R,ugm-3,31,R,ugm-3,36,R,ugm-3
16-01-2006,07:00,4,R,ugm-3,34,R,ugm-3,40,R,ugm-3
16-01-2006,08:00,21,R,ugm-3,46,R,ugm-3,78,R,ugm-3
16-01-2006,09:00,33,R,ugm-3,61,R,ugm-3,111,R,ugm-3
16-01-2006,10:00,16,R,ugm-3,46,R,ugm-3,71,R,ugm-3
16-01-2006,11:00,16,R,ugm-3,42,R,ugm-3,67,R,ugm-3
16-01-2006,12:00,25,R,ugm-3,40,R,ugm-3,78,R,ugm-3
16-01-2006,13:00,14,R,ugm-3,40,R,ugm-3,61,R,ugm-3
16-01-2006,14:00,34,R,ugm-3,61,R,ugm-3,113,R,ugm-3
16-01-2006,15:00,28,R,ugm-3,42,R,ugm-3,84,R,ugm-3
16-01-2006,16:00,20,R,ugm-3,48,R,ugm-3,78,R,ugm-3
16-01-2006,17:00,8,R,ugm-3,34,R,ugm-3,46,R,ugm-3
16-01-2006,18:00,4,R,ugm-3,31,R,ugm-3,36,R,ugm-3
16-01-2006,19:00,1,R,ugm-3,25,R,ugm-3,27,R,ugm-3
16-01-2006,20:00,1,R,ugm-3,27,R,ugm-3,29,R,ugm-3
16-01-2006,21:00,3,R,ugm-3,27,R,ugm-3,31,R,ugm-3
16-01-2006,22:00,3,R,ugm-3,27,R,ugm-3,31,R,ugm-3
16-01-2006,23:00,1,R,ugm-3,25,R,ugm-3,27,R,ugm-3
16-01-2006,24:00,1,R,ugm-3,23,R,ugm-3,25,R,ugm-3
17-01-2006,01:00,0,R,ugm-3,15,R,ugm-3,15,R,ugm-3
17-01-2006,02:00,1,R,ugm-3,17,R,ugm-3,19,R,ugm-3
17-01-2006,03:00,1,R,ugm-3,21,R,ugm-3,23,R,ugm-3
17-01-2006,04:00,1,R,ugm-3,19,R,ugm-3,21,R,ugm-3
17-01-2006,05:00,1,R,ugm-3,19,R,ugm-3,21,R,ugm-3
17-01-2006,06:00,4,R,ugm-3,27,R,ugm-3,32,R,ugm-3
17-01-2006,07:00,13,R,ugm-3,57,R,ugm-3,76,R,ugm-3
17-01-2006,08:00,105,R,ugm-3,103,R,ugm-3,264,R,ugm-3
17-01-2006,09:00,101,R,ugm-3,90,R,ugm-3,244,R,ugm-3
17-01-2006,10:00,86,R,ugm-3,74,R,ugm-3,206,R,ugm-3
17-01-2006,11:00,,,,,,,,,
17-01-2006,12:00,100,R,ugm-3,86,R,ugm-3,239,R,ugm-3
17-01-2006,13:00,174,R,ugm-3,139,R,ugm-3,405,R,ugm-3
17-01-2006,14:00,159,R,ugm-3,124,R,ugm-3,367,R,ugm-3
17-01-2006,15:00,39,R,ugm-3,52,R,ugm-3,111,R,ugm-3
17-01-2006,16:00,40,R,ugm-3,69,R,ugm-3,130,R,ugm-3
17-01-2006,17:00,16,R,ugm-3,46,R,ugm-3,71,R,ugm-3
17-01-2006,18:00,29,R,ugm-3,59,R,ugm-3,103,R,ugm-3
17-01-2006,19:00,8,R,ugm-3,46,R,ugm-3,57,R,ugm-3
17-01-2006,20:00,5,R,ugm-3,40,R,ugm-3,48,R,ugm-3
17-01-2006,21:00,4,R,ugm-3,27,R,ugm-3,32,R,ugm-3
17-01-2006,22:00,1,R,ugm-3,29,R,ugm-3,31,R,ugm-3
17-01-2006,23:00,1,R,ugm-3,25,R,ugm-3,27,R,ugm-3
17-01-2006,24:00,1,R,ugm-3,19,R,ugm-3,21,R,ugm-3
18-01-2006,01:00,0,R,ugm-3,13,R,ugm-3,13,R,ugm-3
18-01-2006,02:00,0,R,ugm-3,17,R,ugm-3,17,R,ugm-3
18-01-2006,03:00,0,R,ugm-3,17,R,ugm-3,17,R,ugm-3
18-01-2006,04:00,1,R,ugm-3,17,R,ugm-3,19,R,ugm-3
18-01-2006,05:00,1,R,ugm-3,23,R,ugm-3,25,R,ugm-3
18-01-2006,06:00,5,R,ugm-3,31,R,ugm-3,38,R,ugm-3
18-01-2006,07:00,34,R,ugm-3,52,R,ugm-3,103,R,ugm-3
18-01-2006,08:00,151,R,ugm-3,94,R,ugm-3,325,R,ugm-3
18-01-2006,09:00,278,R,ugm-3,145,R,ugm-3,569,R,ugm-3
18-01-2006,10:00,149,R,ugm-3,90,R,ugm-3,317,R,ugm-3
18-01-2006,11:00,99,R,ugm-3,65,R,ugm-3,216,R,ugm-3
18-01-2006,12:00,29,R,ugm-3,40,R,ugm-3,84,R,ugm-3
18-01-2006,13:00,50,R,ugm-3,67,R,ugm-3,143,R,ugm-3
18-01-2006,14:00,68,R,ugm-3,88,R,ugm-3,191,R,ugm-3
18-01-2006,15:00,43,R,ugm-3,57,R,ugm-3,122,R,ugm-3
18-01-2006,16:00,63,R,ugm-3,73,R,ugm-3,168,R,ugm-3
18-01-2006,17:00,23,R,ugm-3,57,R,ugm-3,92,R,ugm-3
18-01-2006,18:00,19,R,ugm-3,46,R,ugm-3,74,R,ugm-3
18-01-2006,19:00,11,R,ugm-3,42,R,ugm-3,59,R,ugm-3
18-01-2006,20:00,3,R,ugm-3,27,R,ugm-3,31,R,ugm-3
18-01-2006,21:00,1,R,ugm-3,25,R,ugm-3,27,R,ugm-3
18-01-2006,22:00,1,R,ugm-3,21,R,ugm-3,23,R,ugm-3
18-01-2006,23:00,1,R,ugm-3,17,R,ugm-3,19,R,ugm-3
18-01-2006,24:00,1,R,ugm-3,13,R,ugm-3,15,R,ugm-3
19-01-2006,01:00,0,R,ugm-3,13,R,ugm-3,13,R,ugm-3
19-01-2006,02:00,0,R,ugm-3,10,R,ugm-3,10,R,ugm-3
19-01-2006,03:00,0,R,ugm-3,10,R,ugm-3,10,R,ugm-3
19-01-2006,04:00,0,R,ugm-3,13,R,ugm-3,13,R,ugm-3
19-01-2006,05:00,0,R,ugm-3,15,R,ugm-3,15,R,ugm-3
19-01-2006,06:00,1,R,ugm-3,13,R,ugm-3,15,R,ugm-3
19-01-2006,07:00,3,R,ugm-3,25,R,ugm-3,29,R,ugm-3
19-01-2006,08:00,35,R,ugm-3,52,R,ugm-3,105,R,ugm-3
19-01-2006,09:00,23,R,ugm-3,44,R,ugm-3,78,R,ugm-3
19-01-2006,10:00,10,R,ugm-3,32,R,ugm-3,48,R,ugm-3
19-01-2006,11:00,10,R,ugm-3,29,R,ugm-3,44,R,ugm-3
19-01-2006,12:00,14,R,ugm-3,27,R,ugm-3,48,R,ugm-3
19-01-2006,13:00,6,R,ugm-3,23,R,ugm-3,32,R,ugm-3
19-01-2006,14:00,11,R,ugm-3,25,R,ugm-3,42,R,ugm-3
19-01-2006,15:00,9,R,ugm-3,23,R,ugm-3,36,R,ugm-3
19-01-2006,16:00,16,R,ugm-3,31,R,ugm-3,55,R,ugm-3
19-01-2006,17:00,20,R,ugm-3,27,R,ugm-3,57,R,ugm-3
19-01-2006,18:00,11,R,ugm-3,21,R,ugm-3,38,R,ugm-3
19-01-2006,19:00,3,R,ugm-3,17,R,ugm-3,21,R,ugm-3
19-01-2006,20:00,1,R,ugm-3,11,R,ugm-3,13,R,ugm-3
19-01-2006,21:00,1,R,ugm-3,10,R,ugm-3,11,R,ugm-3
19-01-2006,22:00,1,R,ugm-3,13,R,ugm-3,15,R,ugm-3
19-01-2006,23:00,0,R,ugm-3,11,R,ugm-3,11,R,ugm-3
19-01-2006,24:00,0,R,ugm-3,15,R,ugm-3,15,R,ugm-3
20-01-2006,01:00,0,R,ugm-3,11,R,ugm-3,11,R,ugm-3
20-01-2006,02:00,0,R,ugm-3,8,R,ugm-3,8,R,ugm-3
20-01-2006,03:00,0,R,ugm-3,10,R,ugm-3,10,R,ugm-3
20-01-2006,04:00,0,R,ugm-3,8,R,ugm-3,8,R,ugm-3
20-01-2006,05:00,0,R,ugm-3,6,R,ugm-3,6,R,ugm-3
20-01-2006,06:00,3,R,ugm-3,10,R,ugm-3,13,R,ugm-3
20-01-2006,07:00,4,R,ugm-3,17,R,ugm-3,23,R,ugm-3
20-01-2006,08:00,16,R,ugm-3,36,R,ugm-3,61,R,ugm-3
20-01-2006,09:00,19,R,ugm-3,42,R,ugm-3,71,R,ugm-3
20-01-2006,10:00,9,R,ugm-3,29,R,ugm-3,42,R,ugm-3
20-01-2006,11:00,9,R,ugm-3,21,R,ugm-3,34,R,ugm-3
20-01-2006,12:00,6,R,ugm-3,15,R,ugm-3,25,R,ugm-3
20-01-2006,13:00,5,R,ugm-3,13,R,ugm-3,21,R,ugm-3
20-01-2006,14:00,9,R,ugm-3,17,R,ugm-3,31,R,ugm-3
20-01-2006,15:00,8,R,ugm-3,21,R,ugm-3,32,R,ugm-3
20-01-2006,16:00,18,R,ugm-3,29,R,ugm-3,55,R,ugm-3
20-01-2006,17:00,6,R,ugm-3,21,R,ugm-3,31,R,ugm-3
20-01-2006,18:00,29,R,ugm-3,44,R,ugm-3,88,R,ugm-3
20-01-2006,19:00,3,R,ugm-3,13,R,ugm-3,17,R,ugm-3
20-01-2006,20:00,1,R,ugm-3,11,R,ugm-3,13,R,ugm-3
20-01-2006,21:00,1,R,ugm-3,11,R,ugm-3,13,R,ugm-3
20-01-2006,22:00,1,R,ugm-3,8,R,ugm-3,10,R,ugm-3